QPF
0.00 0.00 0.00 0.00 0.00 0.00 0.00 0.00 0.00 0.00 0.00 0.01 0.01 0.02 0.04 0.05 0.04 0.04 0.05 0.07 0.05 0.04 0.04 0.05 0.04 0.04 0.04 0.04 0.04 0.04 0.04 0.04 0.03 0.03 0.03 0.04 0.04 0.04 0.03 0.02 0.01 0.02 0.03 0.04
0.00 0.00 0.00 0.00 0.00 0.00 0.00 0.00 0.01 0.01 0.00 0.01 0.02 0.02 0.03 0.04 0.04 0.04 0.04 0.05 0.05 0.04 0.03 0.03 0.03 0.03 0.03 0.02 0.01 0.02 0.02 0.02 0.01 0.02 0.02 0.02 0.02 0.01 0.01 0.01 0.01 0.01 0.01 0.01
0.00 0.00 0.00 0.00 0.00 0.00 0.00 0.00 0.01 0.01 0.00 0.01 0.02 0.03 0.03 0.03 0.04 0.03 0.03 0.05 0.06 0.05 0.04 0.03 0.02 0.01 0.01 0.02 0.01 0.01 0.01 0.02 0.02 0.02 0.01 0.01 0.02 0.01 0.01 0.01 0.01 0.01 0.01 0.00
0.00 0.00 0.00 0.00 0.00 0.00 0.00 0.00 0.00 0.00 0.02 0.02 0.02 0.04 0.03 0.03 0.03 0.03 0.03 0.03 0.03 0.04 0.03 0.03 0.02 0.01 0.00 0.00 0.01 0.01 0.02 0.02 0.02 0.01 0.02 0.02 0.02 0.02 0.01 0.01 0.01 0.01 0.01 0.01
0.00 0.00 0.00 0.00 0.00 0.00 0.00 0.00 0.00 0.00 0.01 0.01 0.01 0.01 0.02 0.02 0.03 0.02 0.02 0.02 0.02 0.02 0.02 0.01 0.01 0.01 0.00 0.00 0.01 0.01 0.01 0.01 0.01 0.01 0.02 0.02 0.01 0.01 0.01 0.00 0.00 0.00 0.00 0.00
0.00 0.00 0.00 0.00 0.00 0.00 0.00 0.00 0.00 0.00 0.00 0.02 0.01 0.01 0.01 0.01 0.02 0.01 0.01 0.01 0.01 0.01 0.00 0.00 0.00 0.00 0.00 0.00 0.00 0.01 0.01 0.01 0.01 0.01 0.01 0.01 0.01 0.01 0.00 0.00 0.00 0.00 0.00 0.00
0.00 0.00 0.00 0.00 0.00 0.00 0.00 0.00 0.01 0.01 0.02 0.02 0.00 0.00 0.00 0.00 0.00 0.00 0.00 0.01 0.00 0.00 0.00 0.00 0.00 0.00 0.00 0.00 0.00 0.01 0.01 0.01 0.01 0.01 0.01 0.01 0.01 0.01 0.00 0.00 0.00 0.00 0.00 0.00
0.00 0.00 0.00 0.00 0.00 0.00 0.00 0.00 0.01 0.02 0.02 0.01 0.00 0.00 0.00 0.00 0.00 0.00 0.00 0.00 0.00 0.00 0.00 0.00 0.00 0.00 0.00 0.00 0.00 0.00 0.00 0.01 0.01 0.00 0.00 0.01 0.00 0.00 0.00 0.00 0.00 0.00 0.00 0.00
0.00 0.00 0.00 0.00 0.00 0.00 0.00 0.00 0.00 0.01 0.01 0.00 0.00 0.00 0.00 0.00 0.00 0.00 0.00 0.00 0.00 0.00 0.00 0.00 0.00 0.00 0.00 0.00 0.00 0.00 0.00 0.00 0.01 0.00 0.00 0.00 0.00 0.00 0.00 0.00 0.00 0.00 0.00 0.00
0.00 0.00 0.00 0.00 0.00 0.00 0.00 0.00 0.00 0.01 0.01 0.00 0.00 0.00 0.00 0.00 0.00 0.00 0.00 0.00 0.00 0.00 0.00 0.00 0.00 0.00 0.00 0.00 0.00 0.00 0.00 0.00 0.00 0.00 0.00 0.00 0.00 0.00 0.00 0.00 0.00 0.00 0.00 0.00
0.00 0.00 0.00 0.00 0.00 0.00 0.00 0.00 0.00 0.01 0.00 0.00 0.00 0.00 0.00 0.00 0.00 0.00 0.00 0.00 0.00 0.00 0.00 0.00 0.00 0.00 0.00 0.00 0.00 0.00 0.00 0.00 0.00 0.00 0.00 0.00 0.00 0.00 0.00 0.00 0.00 0.00 0.00 0.00
0.00 0.00 0.00 0.00 0.00 0.00 0.00 0.00 0.00 0.00 0.00 0.00 0.00 0.00 0.00 0.00 0.00 0.00 0.00 0.00 0.00 0.00 0.00 0.00 0.00 0.00 0.00 0.00 0.00 0.00 0.00 0.00 0.00 0.00 0.00 0.00 0.00 0.00 0.00 0.00 0.00 0.00 0.00 0.00
0.00 0.00 0.00 0.00 0.00 0.00 0.00 0.00 0.00 0.00 0.00 0.00 0.00 0.00 0.00 0.00 0.00 0.00 0.00 0.00 0.00 0.00 0.00 0.00 0.00 0.00 0.00 0.00 0.00 0.00 0.00 0.00 0.00 0.00 0.00 0.00 0.00 0.00 0.00 0.00 0.00 0.00 0.00 0.00
0.00 0.00 0.00 0.00 0.00 0.00 0.00 0.00 0.00 0.00 0.00 0.00 0.00 0.00 0.00 0.00 0.00 0.00 0.00 0.00 0.00 0.00 0.00 0.00 0.00 0.00 0.00 0.00 0.00 0.00 0.00 0.00 0.00 0.00 0.00 0.00 0.00 0.00 0.00 0.00 0.00 0.00 0.00 0.00
0.00 0.00 0.00 0.00 0.00 0.00 0.00 0.00 0.00 0.00 0.00 0.00 0.00 0.00 0.00 0.00 0.00 0.00 0.00 0.00 0.00 0.00 0.00 0.00 0.00 0.00 0.00 0.00 0.00 0.00 0.00 0.00 0.00 0.00 0.00 0.00 0.00 0.00 0.00 0.00 0.00 0.00 0.00 0.00
0.00 0.00 0.00 0.00 0.00 0.00 0.00 0.00 0.00 0.00 0.00 0.00 0.00 0.00 0.00 0.00 0.00 0.00 0.00 0.00 0.00 0.00 0.00 0.00 0.00 0.00 0.00 0.00 0.00 0.00 0.00 0.00 0.00 0.00 0.00 0.00 0.00 0.00 0.00 0.00 0.00 0.00 0.00 0.00
0.00 0.00 0.00 0.00 0.00 0.00 0.00 0.00 0.00 0.00 0.00 0.00 0.00 0.00 0.00 0.00 0.00 0.00 0.00 0.00 0.00 0.00 0.00 0.00 0.00 0.00 0.00 0.00 0.00 0.00 0.00 0.00 0.00 0.00 0.00 0.00 0.00 0.00 0.00 0.00 0.00 0.00 0.00 0.00
0.00 0.00 0.00 0.00 0.00 0.00 0.00 0.00 0.00 0.00 0.00 0.00 0.00 0.00 0.00 0.00 0.00 0.00 0.00 0.00 0.00 0.00 0.00 0.00 0.00 0.00 0.00 0.00 0.00 0.00 0.00 0.00 0.00 0.00 0.00 0.00 0.00 0.00 0.00 0.00 0.00 0.00 0.00 0.00
0.01 0.01 0.00 0.00 0.00 0.00 0.00 0.00 0.00 0.00 0.00 0.00 0.00 0.00 0.00 0.00 0.00 0.00 0.00 0.00 0.00 0.00 0.00 0.00 0.00 0.00 0.00 0.00 0.00 0.00 0.00 0.00 0.00 0.00 0.00 0.00 0.00 0.00 0.00 0.00 0.00 0.00 0.00 0.00
0.01 0.01 0.01 0.01 0.01 0.00 0.00 0.00 0.00 0.00 0.00 0.00 0.00 0.00 0.00 0.00 0.00 0.00 0.00 0.00 0.00 0.00 0.00 0.00 0.00 0.00 0.00 0.00 0.00 0.00 0.00 0.00 0.00 0.00 0.00 0.00 0.00 0.00 0.00 0.00 0.00 0.00 0.00 0.00
0.01 0.02 0.02 0.03 0.02 0.01 0.01 0.01 0.01 0.00 0.00 0.00 0.00 0.00 0.00 0.00 0.00 0.00 0.00 0.00 0.00 0.00 0.00 0.00 0.00 0.00 0.00 0.00 0.00 0.00 0.00 0.00 0.00 0.00 0.00 0.00 0.00 0.00 0.00 0.00 0.00 0.00 0.00 0.00
0.01 0.02 0.03 0.03 0.03 0.01 0.00 0.00 0.00 0.00 0.00 0.00 0.00 0.00 0.00 0.00 0.00 0.00 0.00 0.00 0.00 0.00 0.00 0.00 0.00 0.00 0.00 0.00 0.00 0.00 0.00 0.00 0.00 0.00 0.00 0.00 0.00 0.00 0.00 0.00 0.00 0.00 0.00 0.00
0.01 0.01 0.01 0.01 0.01 0.00 0.00 0.00 0.00 0.00 0.00 0.00 0.00 0.00 0.00 0.00 0.00 0.00 0.00 0.00 0.00 0.00 0.00 0.00 0.00 0.00 0.00 0.00 0.00 0.00 0.00 0.00 0.00 0.00 0.00 0.00 0.00 0.00 0.00 0.00 0.00 0.00 0.00 0.00
0.00 0.00 0.00 0.00 0.00 0.00 0.00 0.00 0.00 0.00 0.00 0.00 0.00 0.00 0.00 0.00 0.00 0.00 0.00 0.00 0.00 0.00 0.00 0.00 0.00 0.00 0.00 0.00 0.00 0.00 0.00 0.00 0.00 0.00 0.00 0.00 0.00 0.00 0.00 0.00 0.00 0.00 0.00 0.00
0.00 0.00 0.00 0.00 0.00 0.00 0.00 0.00 0.00 0.00 0.00 0.00 0.00 0.00 0.00 0.00 0.00 0.00 0.00 0.00 0.00 0.00 0.00 0.00 0.00 0.00 0.00 0.00 0.00 0.00 0.00 0.00 0.00 0.00 0.00 0.00 0.00 0.00 0.00 0.00 0.00 0.00 0.00 0.00
0.00 0.00 0.00 0.00 0.00 0.00 0.00 0.00 0.00 0.00 0.00 0.00 0.00 0.00 0.00 0.00 0.00 0.00 0.00 0.00 0.00 0.00 0.00 0.00 0.00 0.00 0.00 0.00 0.00 0.00 0.00 0.00 0.00 0.00 0.00 0.00 0.00 0.00 0.00 0.00 0.00 0.00 0.00 0.00
MSLP
1011.74 1011.98 1012.08 1012.07 1012.02 1012.00 1012.09 1012.32 1012.73 1013.27 1013.89 1014.52 1015.06 1015.45 1015.66 1015.67 1015.51 1015.24 1014.92 1014.61 1014.35 1014.18 1014.10 1014.10 1014.16 1014.26 1014.38 1014.50 1014.63 1014.77 1014.91 1015.06 1015.20 1015.33 1015.44 1015.51 1015.53 1015.51 1015.47 1015.41 1015.36 1015.35 1015.38 1015.47
1011.68 1011.89 1011.96 1011.95 1011.91 1011.94 1012.08 1012.40 1012.88 1013.48 1014.16 1014.81 1015.36 1015.75 1015.95 1015.95 1015.79 1015.52 1015.21 1014.91 1014.66 1014.49 1014.40 1014.38 1014.41 1014.46 1014.54 1014.62 1014.71 1014.82 1014.95 1015.10 1015.25 1015.38 1015.49 1015.54 1015.55 1015.50 1015.42 1015.33 1015.26 1015.23 1015.25 1015.35
1011.57 1011.72 1011.76 1011.75 1011.73 1011.80 1012.01 1012.39 1012.94 1013.59 1014.29 1014.94 1015.48 1015.84 1016.01 1015.97 1015.79 1015.51 1015.21 1014.92 1014.70 1014.55 1014.48 1014.47 1014.50 1014.55 1014.61 1014.68 1014.77 1014.88 1015.01 1015.17 1015.34 1015.49 1015.60 1015.66 1015.65 1015.58 1015.48 1015.36 1015.26 1015.20 1015.22 1015.30
1011.41 1011.51 1011.52 1011.50 1011.51 1011.63 1011.90 1012.35 1012.95 1013.63 1014.33 1014.96 1015.46 1015.76 1015.86 1015.77 1015.55 1015.25 1014.95 1014.69 1014.50 1014.39 1014.36 1014.39 1014.45 1014.52 1014.59 1014.68 1014.78 1014.91 1015.07 1015.26 1015.45 1015.62 1015.75 1015.82 1015.81 1015.74 1015.62 1015.48 1015.36 1015.28 1015.26 1015.32
1011.26 1011.30 1011.28 1011.26 1011.30 1011.47 1011.80 1012.30 1012.94 1013.64 1014.33 1014.92 1015.35 1015.57 1015.59 1015.43 1015.15 1014.83 1014.52 1014.28 1014.13 1014.07 1014.10 1014.18 1014.29 1014.41 1014.52 1014.64 1014.77 1014.93 1015.12 1015.33 1015.55 1015.75 1015.90 1015.99 1015.99 1015.92 1015.80 1015.65 1015.51 1015.41 1015.36 1015.38
1011.16 1011.15 1011.10 1011.08 1011.16 1011.37 1011.76 1012.31 1012.97 1013.67 1014.33 1014.87 1015.21 1015.35 1015.27 1015.03 1014.70 1014.34 1014.02 1013.80 1013.69 1013.69 1013.78 1013.93 1014.10 1014.27 1014.43 1014.59 1014.75 1014.93 1015.14 1015.37 1015.60 1015.82 1016.00 1016.10 1016.13 1016.07 1015.95 1015.80 1015.65 1015.53 1015.46 1015.44
1011.12 1011.08 1011.02 1011.01 1011.11 1011.37 1011.80 1012.38 1013.05 1013.74 1014.36 1014.82 1015.08 1015.12 1014.96 1014.64 1014.24 1013.85 1013.53 1013.33 1013.27 1013.33 1013.49 1013.70 1013.94 1014.16 1014.37 1014.55 1014.74 1014.92 1015.14 1015.37 1015.60 1015.83 1016.01 1016.13 1016.17 1016.13 1016.03 1015.88 1015.73 1015.59 1015.49 1015.43
1011.17 1011.10 1011.04 1011.05 1011.18 1011.46 1011.91 1012.50 1013.16 1013.82 1014.38 1014.77 1014.94 1014.89 1014.65 1014.26 1013.83 1013.42 1013.11 1012.93 1012.91 1013.03 1013.26 1013.54 1013.84 1014.11 1014.35 1014.56 1014.75 1014.93 1015.12 1015.33 1015.55 1015.76 1015.93 1016.05 1016.10 1016.07 1015.98 1015.85 1015.70 1015.55 1015.43 1015.34
1011.25 1011.19 1011.14 1011.17 1011.31 1011.62 1012.07 1012.64 1013.26 1013.86 1014.34 1014.65 1014.74 1014.62 1014.31 1013.88 1013.43 1013.02 1012.73 1012.60 1012.64 1012.82 1013.12 1013.46 1013.81 1014.13 1014.40 1014.61 1014.79 1014.95 1015.11 1015.28 1015.46 1015.63 1015.78 1015.88 1015.93 1015.90 1015.82 1015.70 1015.55 1015.40 1015.27 1015.16
1011.32 1011.29 1011.27 1011.31 1011.47 1011.77 1012.19 1012.72 1013.27 1013.79 1014.18 1014.41 1014.42 1014.24 1013.89 1013.45 1013.01 1012.63 1012.39 1012.32 1012.42 1012.67 1013.02 1013.43 1013.83 1014.18 1014.47 1014.69 1014.85 1014.98 1015.10 1015.22 1015.34 1015.47 1015.58 1015.65 1015.68 1015.66 1015.58 1015.46 1015.31 1015.16 1015.02 1014.88
1011.34 1011.35 1011.36 1011.43 1011.59 1011.86 1012.23 1012.68 1013.14 1013.55 1013.85 1013.98 1013.93 1013.70 1013.35 1012.93 1012.52 1012.20 1012.02 1012.02 1012.19 1012.51 1012.93 1013.39 1013.83 1014.21 1014.52 1014.74 1014.89 1015.00 1015.07 1015.14 1015.22 1015.29 1015.36 1015.40 1015.41 1015.37 1015.28 1015.16 1015.02 1014.86 1014.71 1014.56
1011.28 1011.34 1011.40 1011.49 1011.63 1011.86 1012.15 1012.50 1012.84 1013.13 1013.32 1013.37 1013.26 1013.01 1012.67 1012.29 1011.94 1011.70 1011.61 1011.69 1011.93 1012.32 1012.79 1013.29 1013.76 1014.18 1014.50 1014.73 1014.87 1014.96 1015.01 1015.05 1015.08 1015.11 1015.14 1015.15 1015.13 1015.08 1014.99 1014.86 1014.71 1014.54 1014.38 1014.21
1011.16 1011.27 1011.37 1011.47 1011.59 1011.76 1011.97 1012.19 1012.41 1012.57 1012.65 1012.61 1012.45 1012.20 1011.89 1011.57 1011.30 1011.15 1011.15 1011.31 1011.62 1012.06 1012.57 1013.10 1013.60 1014.03 1014.36 1014.60 1014.76 1014.84 1014.88 1014.90 1014.92 1014.92 1014.92 1014.91 1014.87 1014.80 1014.70 1014.56 1014.40 1014.23 1014.04 1013.85
1011.00 1011.17 1011.30 1011.40 1011.50 1011.60 1011.71 1011.81 1011.89 1011.93 1011.90 1011.78 1011.59 1011.35 1011.08 1010.83 1010.66 1010.60 1010.68 1010.91 1011.27 1011.74 1012.27 1012.82 1013.32 1013.76 1014.10 1014.35 1014.52 1014.62 1014.67 1014.70 1014.71 1014.71 1014.70 1014.67 1014.62 1014.54 1014.42 1014.28 1014.10 1013.91 1013.70 1013.49
1010.86 1011.07 1011.23 1011.34 1011.40 1011.43 1011.44 1011.43 1011.38 1011.29 1011.16 1010.99 1010.77 1010.54 1010.32 1010.15 1010.07 1010.10 1010.25 1010.54 1010.93 1011.41 1011.94 1012.47 1012.96 1013.38 1013.73 1013.99 1014.17 1014.30 1014.37 1014.42 1014.44 1014.45 1014.44 1014.41 1014.35 1014.26 1014.13 1013.98 1013.79 1013.57 1013.34 1013.10
1010.78 1011.02 1011.19 1011.29 1011.32 1011.29 1011.21 1011.08 1010.92 1010.73 1010.52 1010.29 1010.07 1009.86 1009.69 1009.60 1009.60 1009.70 1009.91 1010.23 1010.64 1011.11 1011.61 1012.10 1012.55 1012.95 1013.29 1013.55 1013.75 1013.89 1014.00 1014.07 1014.12 1014.14 1014.14 1014.11 1014.05 1013.95 1013.81 1013.64 1013.43 1013.20 1012.94 1012.66
1010.78 1011.03 1011.20 1011.28 1011.27 1011.17 1011.01 1010.79 1010.54 1010.26 1009.99 1009.73 1009.50 1009.32 1009.21 1009.19 1009.26 1009.42 1009.68 1010.02 1010.42 1010.86 1011.31 1011.75 1012.16 1012.52 1012.83 1013.08 1013.29 1013.46 1013.59 1013.69 1013.76 1013.80 1013.80 1013.78 1013.71 1013.59 1013.44 1013.24 1013.01 1012.76 1012.47 1012.17
1010.82 1011.05 1011.21 1011.26 1011.21 1011.06 1010.83 1010.54 1010.21 1009.87 1009.55 1009.27 1009.05 1008.90 1008.84 1008.88 1009.01 1009.23 1009.52 1009.86 1010.25 1010.65 1011.05 1011.44 1011.79 1012.11 1012.39 1012.64 1012.85 1013.03 1013.18 1013.30 1013.38 1013.43 1013.44 1013.40 1013.32 1013.18 1013.01 1012.79 1012.53 1012.25 1011.94 1011.62
1010.85 1011.06 1011.18 1011.20 1011.10 1010.91 1010.62 1010.26 1009.88 1009.49 1009.14 1008.85 1008.64 1008.52 1008.51 1008.60 1008.78 1009.04 1009.36 1009.71 1010.09 1010.46 1010.82 1011.16 1011.47 1011.75 1012.01 1012.24 1012.45 1012.64 1012.80 1012.93 1013.02 1013.07 1013.06 1013.01 1012.90 1012.73 1012.52 1012.28 1012.00 1011.69 1011.37 1011.02
1010.82 1010.98 1011.06 1011.04 1010.91 1010.66 1010.32 1009.92 1009.49 1009.07 1008.70 1008.40 1008.19 1008.11 1008.13 1008.27 1008.49 1008.79 1009.13 1009.49 1009.86 1010.22 1010.55 1010.87 1011.15 1011.42 1011.67 1011.90 1012.12 1012.32 1012.48 1012.61 1012.70 1012.73 1012.70 1012.61 1012.46 1012.26 1012.01 1011.74 1011.43 1011.11 1010.78 1010.43
1010.70 1010.82 1010.86 1010.79 1010.61 1010.32 1009.95 1009.50 1009.04 1008.58 1008.19 1007.88 1007.68 1007.60 1007.65 1007.81 1008.07 1008.39 1008.76 1009.14 1009.52 1009.88 1010.22 1010.53 1010.82 1011.10 1011.35 1011.60 1011.83 1012.04 1012.21 1012.34 1012.40 1012.41 1012.34 1012.21 1012.02 1011.78 1011.49 1011.18 1010.86 1010.53 1010.20 1009.87
1010.52 1010.60 1010.60 1010.49 1010.27 1009.95 1009.53 1009.05 1008.55 1008.07 1007.64 1007.31 1007.10 1007.02 1007.07 1007.25 1007.52 1007.85 1008.24 1008.64 1009.03 1009.42 1009.78 1010.12 1010.44 1010.74 1011.03 1011.31 1011.56 1011.78 1011.96 1012.08 1012.13 1012.10 1012.00 1011.82 1011.58 1011.29 1010.98 1010.64 1010.31 1009.98 1009.67 1009.36
1010.36 1010.41 1010.38 1010.24 1009.99 1009.63 1009.17 1008.66 1008.12 1007.60 1007.15 1006.78 1006.54 1006.44 1006.47 1006.62 1006.88 1007.22 1007.61 1008.02 1008.44 1008.85 1009.25 1009.63 1009.99 1010.34 1010.67 1010.99 1011.27 1011.52 1011.70 1011.82 1011.85 1011.79 1011.65 1011.43 1011.15 1010.82 1010.47 1010.12 1009.79 1009.47 1009.18 1008.92
1010.30 1010.35 1010.30 1010.14 1009.86 1009.48 1008.99 1008.45 1007.87 1007.31 1006.81 1006.40 1006.11 1005.96 1005.94 1006.06 1006.28 1006.59 1006.96 1007.37 1007.80 1008.23 1008.66 1009.08 1009.49 1009.89 1010.27 1010.63 1010.95 1011.22 1011.41 1011.52 1011.54 1011.45 1011.28 1011.02 1010.70 1010.34 1009.97 1009.62 1009.29 1008.99 1008.74 1008.52
1010.46 1010.52 1010.47 1010.30 1010.01 1009.60 1009.09 1008.51 1007.90 1007.30 1006.75 1006.28 1005.93 1005.71 1005.62 1005.67 1005.83 1006.09 1006.42 1006.80 1007.21 1007.65 1008.09 1008.53 1008.98 1009.42 1009.84 1010.23 1010.58 1010.86 1011.07 1011.17 1011.18 1011.07 1010.87 1010.58 1010.24 1009.86 1009.48 1009.12 1008.81 1008.54 1008.32 1008.14
1010.87 1010.96 1010.93 1010.76 1010.47 1010.05 1009.52 1008.92 1008.27 1007.63 1007.03 1006.50 1006.08 1005.78 1005.61 1005.57 1005.64 1005.82 1006.08 1006.40 1006.77 1007.17 1007.60 1008.04 1008.49 1008.94 1009.38 1009.79 1010.15 1010.45 1010.66 1010.76 1010.75 1010.64 1010.42 1010.12 1009.76 1009.37 1008.99 1008.64 1008.33 1008.08 1007.89 1007.75
Thickness
5782 5774 5773 5777 5779 5775 5769 5765 5761 5759 5763 5758 5750 5744 5743 5745 5743 5739 5737 5736 5736 5734 5736 5736 5736 5737 5736 5734 5731 5729 5727 5724 5723 5722 5720 5717 5716 5714 5712 5710 5706 5704 5702 5700
5774 5772 5782 5784 5779 5773 5767 5761 5759 5756 5757 5752 5745 5738 5741 5740 5738 5737 5734 5732 5731 5731 5730 5730 5731 5732 5732 5730 5728 5726 5723 5721 5719 5717 5715 5712 5711 5710 5707 5705 5700 5697 5695 5692
5771 5782 5787 5779 5773 5768 5767 5763 5759 5753 5750 5751 5743 5734 5735 5736 5737 5736 5734 5733 5733 5730 5729 5729 5729 5729 5730 5727 5725 5725 5721 5717 5715 5712 5711 5707 5704 5702 5701 5697 5695 5691 5687 5685
5778 5785 5780 5775 5771 5768 5763 5768 5763 5754 5746 5743 5742 5728 5734 5736 5733 5731 5731 5731 5732 5731 5730 5730 5728 5727 5727 5726 5725 5721 5717 5714 5710 5707 5705 5701 5697 5695 5692 5689 5688 5684 5681 5679
5777 5780 5775 5770 5771 5770 5765 5767 5763 5758 5751 5744 5743 5737 5734 5738 5730 5732 5734 5734 5733 5732 5731 5729 5729 5728 5727 5726 5723 5719 5715 5710 5706 5703 5699 5695 5693 5691 5689 5685 5681 5677 5677 5673
5783 5787 5783 5777 5777 5775 5768 5763 5759 5757 5756 5735 5737 5735 5731 5739 5736 5736 5737 5736 5735 5734 5733 5731 5731 5729 5726 5725 5722 5718 5711 5706 5702 5698 5695 5690 5686 5682 5679 5676 5674 5673 5672 5669
5772 5778 5783 5782 5770 5768 5765 5756 5745 5740 5738 5734 5740 5736 5736 5746 5747 5744 5740 5739 5738 5737 5734 5732 5730 5727 5725 5722 5718 5714 5708 5702 5698 5694 5690 5685 5681 5677 5673 5670 5669 5665 5665 5663
5760 5762 5776 5778 5772 5766 5764 5759 5740 5727 5731 5738 5738 5735 5745 5752 5751 5749 5746 5743 5740 5738 5736 5733 5731 5728 5725 5720 5715 5710 5704 5698 5694 5690 5685 5680 5676 5675 5672 5666 5662 5660 5658 5656
5765 5761 5775 5777 5778 5772 5760 5760 5763 5749 5744 5737 5741 5742 5748 5750 5747 5746 5744 5742 5740 5739 5737 5734 5731 5728 5723 5718 5713 5708 5701 5695 5690 5686 5681 5676 5672 5668 5664 5659 5657 5656 5652 5649
5775 5760 5770 5772 5774 5768 5770 5765 5755 5747 5729 5729 5735 5737 5742 5743 5745 5747 5745 5744 5743 5741 5737 5733 5729 5724 5720 5715 5710 5705 5699 5692 5687 5682 5678 5675 5669 5664 5659 5656 5651 5647 5644 5641
5778 5761 5762 5765 5760 5763 5758 5757 5755 5752 5747 5736 5729 5739 5761 5756 5755 5752 5751 5750 5746 5742 5738 5732 5727 5722 5717 5712 5707 5701 5695 5689 5684 5679 5674 5669 5665 5661 5656 5652 5648 5644 5640 5636
5774 5768 5759 5763 5770 5771 5766 5761 5755 5741 5737 5740 5741 5745 5768 5765 5763 5759 5755 5752 5748 5743 5738 5732 5726 5719 5714 5709 5703 5698 5692 5686 5681 5676 5670 5666 5661 5656 5652 5649 5644 5639 5635 5632
5769 5758 5745 5747 5751 5759 5759 5760 5758 5753 5746 5742 5739 5746 5766 5764 5761 5759 5756 5751 5745 5739 5734 5729 5722 5716 5711 5706 5700 5694 5688 5683 5678 5673 5668 5663 5657 5652 5648 5644 5639 5635 5630 5627
5772 5759 5751 5743 5751 5761 5756 5757 5756 5750 5744 5744 5746 5751 5759 5760 5758 5757 5753 5749 5743 5736 5730 5725 5718 5713 5708 5702 5696 5691 5685 5680 5675 5669 5664 5659 5654 5648 5644 5640 5635 5630 5626 5622
5766 5756 5759 5762 5767 5764 5760 5759 5758 5751 5753 5748 5753 5756 5762 5764 5761 5759 5753 5747 5740 5733 5728 5722 5716 5711 5705 5699 5693 5688 5682 5677 5671 5665 5660 5655 5650 5645 5640 5635 5631 5626 5621 5617
5761 5753 5755 5753 5762 5762 5756 5760 5761 5758 5757 5756 5756 5757 5770 5767 5763 5756 5750 5744 5738 5733 5728 5722 5716 5709 5703 5697 5691 5685 5679 5673 5668 5662 5657 5653 5647 5642 5637 5632 5627 5622 5617 5612
5760 5750 5743 5744 5758 5752 5746 5761 5762 5761 5763 5760 5754 5761 5765 5759 5754 5751 5748 5743 5739 5734 5728 5722 5716 5709 5702 5696 5689 5682 5677 5671 5664 5659 5654 5649 5644 5638 5633 5628 5623 5617 5612 5607
5752 5746 5745 5746 5743 5724 5758 5776 5771 5764 5765 5768 5765 5765 5762 5759 5757 5755 5752 5745 5739 5734 5728 5722 5715 5708 5701 5695 5688 5680 5675 5669 5662 5657 5652 5647 5641 5635 5630 5624 5618 5613 5608 5602
5752 5744 5744 5742 5737 5742 5761 5768 5766 5758 5758 5770 5765 5763 5761 5757 5752 5751 5750 5746 5740 5734 5728 5722 5715 5708 5699 5692 5685 5678 5672 5667 5661 5655 5649 5644 5637 5631 5625 5619 5614 5608 5602 5597
5743 5743 5742 5738 5729 5729 5753 5768 5772 5761 5749 5770 5767 5760 5756 5750 5742 5748 5749 5744 5738 5732 5726 5719 5712 5705 5696 5689 5682 5674 5669 5664 5658 5652 5646 5640 5633 5627 5621 5615 5609 5603 5597 5592
5738 5734 5735 5734 5731 5746 5764 5767 5763 5739 5745 5766 5766 5762 5756 5750 5750 5750 5748 5741 5735 5728 5722 5715 5707 5700 5693 5686 5678 5670 5666 5660 5655 5649 5642 5635 5629 5623 5617 5611 5604 5599 5594 5589
5740 5737 5731 5733 5726 5734 5759 5760 5751 5751 5760 5763 5762 5762 5756 5754 5752 5747 5742 5736 5730 5724 5717 5711 5702 5696 5689 5682 5674 5667 5662 5657 5651 5644 5638 5632 5626 5620 5615 5607 5600 5595 5589 5586
5741 5742 5743 5739 5740 5749 5758 5755 5757 5757 5755 5757 5759 5759 5756 5751 5747 5743 5737 5732 5727 5720 5714 5708 5700 5692 5686 5679 5671 5664 5659 5653 5646 5639 5633 5628 5622 5616 5610 5603 5598 5592 5588 5584
5739 5738 5736 5734 5745 5749 5751 5753 5753 5753 5752 5755 5757 5756 5753 5747 5744 5739 5734 5728 5722 5716 5710 5703 5696 5688 5682 5676 5669 5662 5655 5649 5641 5635 5630 5624 5618 5613 5607 5599 5595 5590 5585 5581
5728 5730 5729 5729 5736 5741 5746 5744 5745 5747 5750 5751 5752 5751 5748 5743 5739 5734 5728 5723 5718 5712 5705 5699 5691 5684 5678 5672 5665 5659 5652 5644 5637 5631 5626 5620 5615 5610 5602 5597 5591 5585 5580 5575
5722 5719 5717 5721 5724 5724 5728 5734 5737 5738 5740 5741 5741 5740 5740 5737 5732 5728 5723 5718 5712 5706 5700 5692 5686 5680 5674 5668 5661 5655 5648 5640 5632 5626 5621 5617 5612 5606 5600 5595 5591 5585 5576 5570